Regional Weather Roundup
Issued by NWS State College, PA

Home | Current Version | Previous Version | Graphics & Text | Print | Product List | Glossary On
Versions: 1 2 3 4 5 6 7 8 9 10 11 12 13 14 15 16 17 18 19 20 21 22 23 24 25 26 27 28 29 30 31 32 33 34 35 36 37 38 39 40 41 42 43 44 45 46 47 48 49 50
000
ASUS41 KCTP 212303
RWRCTP

REGIONAL WEATHER ROUNDUP
NATIONAL WEATHER SERVICE STATE COLLEGE PA
700 PM EDT SAT OCT 21 2017

Note: "fair" indicates few or no clouds below 12,000 feet with no
significant weather and/or obstructions to visibility.

* = STATION THAT DOES NOT REPORT PRECIPITATION /E.G. RAIN...SNOW...ETC/
    THUNDER OR FOG.

PAZ002>004-007>009-013>016-020>023-029>032-220000-
WESTERN PENNSYLVANIA

CITY           SKY/WX    TMP DP  RH WIND       PRES   REMARKS
ERIE           PTCLDY    64  52  64 SW3       30.23R
MEADVILLE      PTCLDY    66  50  56 CALM      30.27R
FRANKLIN*      PTCLDY    66  50  56 S7        30.29R
NEW CASTLE     FAIR      63  53  70 CALM      30.27R
BEAVER COUNTY  NOT AVBL
BUTLER*        CLOUDY    64  53  67 CALM      30.28R
PITTSBURGH INT CLOUDY    69  54  58 CALM      30.27R
PITTSBURGH     CLOUDY    70  49  47 S5        30.26S
INDIANA*       CLEAR     68  45  42 SE6       30.32R
LATROBE        CLEAR     68  48  49 SE6       30.28S
WASHINGTON CO* CLOUDY    66  54  65 CALM      30.30R
$$

PAZ004>006-010>012-017>019-024>028-033>037-041-042-045-046-049>053-220000-
CENTRAL PENNSYLVANIA

CITY           SKY/WX    TMP DP  RH WIND       PRES   REMARKS
BRADFORD       CLOUDY    58  43  57 CALM      30.32R
DUBOIS         CLOUDY    64  40  41 SE6       30.31R
CLEARFIELD     CLOUDY    65  42  43 E3        30.32R
JOHNSTOWN        N/A     62  45  53 SE6       30.33R
ALTOONA        CLOUDY    64  44  48 S7        30.33S
STATE COLLEGE  CLEAR     64  43  45 CALM      30.32S
WILLIAMSPORT   CLOUDY    61  52  72 E3        30.31S
SELINSGROVE    CLOUDY    58  53  84 CALM      30.34R
FT INDIANTOWN  CLOUDY    58  50  74 CALM      30.34R
CAPITAL CITY   CLOUDY    62  51  67 CALM      30.33R
HARRISBURG     CLOUDY    60  58  92 CALM      30.33R
YORK           CLOUDY    64  46  52 CALM      30.34R
$$

PAZ038>040-043-044-047-048-054-055-060>062-067>071-220000-
EASTERN PENNSYLVANIA

CITY           SKY/WX    TMP DP  RH WIND       PRES   REMARKS
SCRANTON       CLOUDY    62  45  53 S3        30.35R
MOUNT POCONO   CLOUDY    55  42  61 W3        30.37R
ALLENTOWN      CLEAR     63  44  50 CALM      30.34R
QUAKERTOWN*    CLOUDY    57  48  72 CALM      30.36R
READING        CLOUDY    65  49  56 CALM      30.33R
LANCASTER      CLOUDY    66  44  45 S5        30.34R
COATESVILLE    PTCLDY    66  43  42 CALM      30.36S
POTTSTOWN      PTCLDY    59  51  75 CALM      30.36R
BLUE BELL      CLOUDY    54  50  87 CALM      30.36R
DOYLESTOWN     CLOUDY    60  48  64 CALM      30.34R
WILLOW GROVE   NOT AVBL
NORTH PHILA    CLEAR     65  47  52 CALM      30.35R
PHILADELPHIA   CLOUDY    70  47  43 S6        30.34R
$$




USA.gov is the U.S. government's official web portal to all federal, state and local government web resources and services.